This is the latest recevied weather packets stored in our database for station/object iz1wiy-2. If no packets are shown the sender has not sent any weather packets the latest 10 day(s).
| Time | Temp. | Humidity | Pressure | Rain* | Wind** | Luminosity | Snow |
|---|---|---|---|---|---|---|---|
| 1778054403 | 18.33° C | 87% | 1008.6 hPa | 0.25 mm | - | - | - |
| 1778054104 | 18.33° C | 87% | 1008.6 hPa | 0.25 mm | - | - | - |
| 1778053803 | 18.33° C | 87% | 1008.7 hPa | 0.25 mm | - | - | - |
| 1778053503 | 18.33° C | 87% | 1008.7 hPa | 0.25 mm | - | - | - |
| 1778053203 | 18.33° C | 87% | 1008.8 hPa | 0.25 mm | - | - | - |
| 1778052904 | 18.33° C | 87% | 1008.5 hPa | 0.25 mm | - | - | - |
| 1778052603 | 17.78° C | 87% | 1008.5 hPa | 0.25 mm | - | - | - |
| 1778052303 | 18.33° C | 87% | 1008.6 hPa | 0.25 mm | - | - | - |
| 1778052004 | 18.33° C | 86% | 1008.5 hPa | 0 mm | - | - | - |
| 1778051703 | 18.33° C | 86% | 1008.5 hPa | 0 mm | - | - | - |
| 1778051403 | 18.33° C | 87% | 1008.4 hPa | 0 mm | - | - | - |
| 1778051103 | 18.33° C | 86% | 1008.6 hPa | 0 mm | - | - | - |
| 1778050804 | 18.33° C | 86% | 1008.4 hPa | 0 mm | - | - | - |
| 1778050503 | 18.33° C | 86% | 1008.5 hPa | 0 mm | - | - | - |
| 1778050203 | 18.33° C | 86% | 1008.4 hPa | 0 mm | - | - | - |
| 1778049903 | 18.33° C | 86% | 1008.4 hPa | 0 mm | - | - | - |
| 1778049604 | 18.33° C | 86% | 1008.4 hPa | 0.25 mm | - | - | - |
| 1778049303 | 17.78° C | 86% | 1008.4 hPa | 0.25 mm | - | - | - |
| 1778049003 | 17.78° C | 86% | 1008.5 hPa | 1.52 mm | - | - | - |
| 1778048704 | 17.78° C | 86% | 1008.5 hPa | 3.56 mm | - | - | - |
| 1778048103 | 17.78° C | 86% | 1008.5 hPa | 6.35 mm | - | - | - |
| 1778047803 | 17.78° C | 86% | 1008.4 hPa | 9.91 mm | - | - | - |
| 1778047503 | 17.78° C | 86% | 1008.2 hPa | 10.92 mm | - | - | - |
| 1778047204 | 17.78° C | 86% | 1008.3 hPa | 10.92 mm | - | - | - |
| 1778046903 | 17.78° C | 86% | 1008.3 hPa | 10.92 mm | - | - | - |
* Rain latest hour (hover to see other rain measurements)
** Current wind speed in m/s (hover to see current wind gust speed)